STARLINK-37456, 69300

Orbit data source: Space-Track

STARLINK-37456, 69300 is a payload satellite owned by SpaceX/Seattle (US) in SSO that was launched on Sat, 30 May 2026 UTC via an FALCON 9 launch vehicle from the Air Force Western Test Range (AFWTR). Payload-class satellites include a variety of spacecraft equipped with specific instruments for various scientific and technological missions. These include communications satellites like Starlink; space stations such as the ISS; scientific satellites like the Hubble; Earth observation satellites from companies like Planet Labs, Umbra, and HawkEye 360; GPS; miniature CubeSats for education and research; and military/defense satellites.

Loading next visibility...
Identifier
69300, 2026-119E
Orbit
SSO
Country
Flag of USUS
Related business
Manufacturer
SpaceX/Seattle
Mission
Operational spacecraft
Bus & Motor
STARLINK V2MO, Unknown motor
Mass
575 kg wet, ~530 kg dry
Launch date (UTC)
2026-05-30 (2 months ago)
Launch vehicle
FALCON 9
Launch site
Air Force Western Test Range (AFWTR)
Object type
Payload
Rocket body
Debris
Shape & HBR
Unknown shape, 17.7 m
Radar Cross Section
Large (>1 m²)

Expand to show TLE details & history
Last TLE update: 15 hours ago

TLE from 15 hours ago
0 STARLINK-37456
1 69300U 26119E   26202.04913485  .00010796  00000-0  33640-3 0  9995
2 69300  97.2848 227.6275 0000973 101.9953 258.1399 15.33432818  9246
Epoch: 2026-07-21T01:10Z
TLE epoch observation values (Epoch: 2026-07-21T01:10:45.251Z)
Latitude
0.00002°
Longitude
-88.88546°
Altitude
468.828 km
Speed
7.632 km/s
True Right ascension
15h 10m 30s
True Declination
0° 00' 00"
Sunlit
Object was in daylight at epoch
Visualization orbit readout
Latitude
Unknown
Longitude
Unknown
Altitude
Unknown
Speed
Unknown
Apparent Right ascension
Unknown
Apparent Declination
Unknown
Sunlit
N/A
Visualization observer readout
Local Sidereal Time
05:29:53
Azimuth
Unknown
Elevation
Unknown
Doppler factor
Unknown
Orbital elements
Apogee altitude
463.188 km
Perigee altitude
461.857 km
Semi-major axis
6,840.659 km
Eccentricity
0.0001
Inclination
97.2848°
RAAN
227.6275°
Arg. of periapsis
101.9953°
True anomaly
258.12899°
Mean anomaly
258.1399°
Eccentric anomaly
258.13444°
Mean motion
3.83616 °/min
Orbital period
93.84 mins
BSTAR
0.0003364
Loading maneuver chart data...
Computing Atmospheric mass density...
Loading historical data...
Loading historical data...
Loading historical data...
Loading historical data...
Loading historical data...
Loading historical data...
Loading historical data...

Documentation

Showing up to 5 results
|